Norwood, MA

6:30 AM EDT on August 24, 2016 (GMT -0400)
Norwood Memorial

Weather History for KOWD - January, 2013

Change the Weather History Date:

Sunday, January 20, 2013

  Actual Average Record
Temperature  
Mean Temperature 42 °F -  
Max Temperature 55 °F 30 °F 57 °F (2006)
Min Temperature 28 °F 14 °F -2 °F (2000)
Degree Days  
Heating Degree Days 24    
Moisture  
Dew Point 23 °F    
Average Humidity 48    
Maximum Humidity 65    
Minimum Humidity 33    
Precipitation  
Precipitation 0.00 in - - ()
Sea Level Pressure  
Sea Level Pressure 29.74 in    
Wind  
Wind Speed 12 mph (WSW)    
Max Wind Speed 26 mph    
Max Gust Speed 37 mph    
Visibility 10 miles    
Events      
Averages and records for this station are not official NWS values.
T = Trace of Precipitation, MM = Missing Value Source: NWS Daily Summary

Daily Weather History Graph

Daily Weather History Graph

Search for Another Location

Airport or City:

Trip Planner

Search our weather history database for the weather conditions in past years. The results will help you decide how hot, cold, wet, or windy it might be!

Date:

Astronomy

Jan. 20, 2013 Rise Set
Actual Time 7:07 AM EST 4:44 PM EST
Civil Twilight 6:37 AM EST 5:14 PM EST
Nautical Twilight 6:03 AM EST 5:49 PM EST
Astronomical Twilight 5:29 AM EST 6:22 PM EST
Moon 11:43 AM EST (1/20) 1:36 AM EST (1/20)
Length of Visible Light 10h 37m
Length of Day
9h 36m
Waxing Gibbous, 66% of the Moon is Illuminated
Jan 20
Waxing Gibbous
Jan 26
Full
Feb 3
Last Quarter
Feb 10
New
Feb 17
First Quarter

Hourly Weather History & Observations

Time (EST) Temp. Windchill Dew Point Humidity Pressure Visibility Wind Dir Wind Speed Gust Speed Precip Events Conditions
12:53 AM 43.0 °F 38.8 °F 30.0 °F 60% 29.86 in 10.0 mi South 6.9 mph - N/A   Clear
1:53 AM 43.0 °F 38.8 °F 30.0 °F 60% 29.84 in 10.0 mi South 6.9 mph - N/A   Clear
2:53 AM 43.0 °F 37.2 °F 30.9 °F 62% 29.80 in 10.0 mi SSW 10.4 mph 24.2 mph N/A   Clear
3:53 AM 43.0 °F 36.8 °F 32.0 °F 65% 29.78 in 10.0 mi SSW 11.5 mph 18.4 mph N/A   Clear
4:53 AM 43.0 °F 37.7 °F 32.0 °F 65% 29.74 in 10.0 mi SSW 9.2 mph 21.9 mph N/A   Clear
5:53 AM 42.1 °F 35.7 °F 30.9 °F 65% 29.71 in 10.0 mi SSW 11.5 mph 20.7 mph N/A   Clear
6:53 AM 42.1 °F 35.2 °F 30.9 °F 65% 29.68 in 10.0 mi SW 12.7 mph 19.6 mph N/A   Clear
7:53 AM 43.0 °F 36.0 °F 30.9 °F 62% 29.67 in 10.0 mi SW 13.8 mph 23.0 mph N/A   Clear
8:53 AM 45.0 °F 38.5 °F 30.0 °F 56% 29.65 in 10.0 mi SW 13.8 mph 24.2 mph N/A   Clear
9:53 AM 48.9 °F - 28.0 °F 44% 29.65 in 10.0 mi SW 15.0 mph 23.0 mph N/A   Clear
10:53 AM 52.0 °F - 27.0 °F 38% 29.61 in 10.0 mi SW 19.6 mph 34.5 mph N/A   Clear
11:53 AM 55.0 °F - 26.1 °F 33% 29.55 in 10.0 mi SW 26.5 mph 36.8 mph N/A   Clear
12:53 PM 54.0 °F - 25.0 °F 33% 29.55 in 10.0 mi WSW 24.2 mph 36.8 mph N/A   Partly Cloudy
1:53 PM 53.1 °F - 25.0 °F 34% 29.57 in 10.0 mi West 21.9 mph 33.4 mph N/A   Overcast
2:53 PM 48.0 °F - 28.0 °F 46% 29.62 in 10.0 mi West 19.6 mph 26.5 mph N/A   Scattered Clouds
3:53 PM 46.9 °F - 23.0 °F 39% 29.65 in 10.0 mi West 15.0 mph 21.9 mph N/A   Mostly Cloudy
4:53 PM 44.1 °F 40.1 °F 21.9 °F 42% 29.69 in 10.0 mi West 6.9 mph - N/A   Clear
5:53 PM 41.0 °F 32.2 °F 14.0 °F 33% 29.75 in 10.0 mi NW 18.4 mph 29.9 mph N/A   Clear
6:53 PM 37.0 °F 27.0 °F 15.1 °F 41% 29.81 in 10.0 mi WNW 18.4 mph 24.2 mph N/A   Clear
7:53 PM 34.0 °F 24.2 °F 12.9 °F 42% 29.83 in 10.0 mi West 15.0 mph 20.7 mph N/A   Clear
8:53 PM 33.1 °F 23.9 °F 10.0 °F 38% 29.88 in 10.0 mi WNW 12.7 mph 24.2 mph N/A   Clear
9:53 PM 30.9 °F 21.7 °F 9.0 °F 40% 29.91 in 10.0 mi West 11.5 mph 18.4 mph N/A   Clear
10:53 PM 28.9 °F 21.1 °F 7.0 °F 40% 29.92 in 10.0 mi WNW 8.1 mph 17.3 mph N/A   Clear
11:53 PM 28.9 °F 21.1 °F 7.0 °F 40% 29.93 in 10.0 mi WNW 8.1 mph - N/A   Clear